Torna al catalogo

DMSP 5D-2 F13 DEB

AttivoSSO
NORAD 40478·DEBRIS·🇺🇸 United States

Lanciato Mar 24, 1995 da Vandenberg Space Force Base

Loading…

Prossimi Passaggi (prossime 24 ore)

TLE

AggiornatoSource: Space-Track

Epoca: Sep 14, 2026, 14:19 UTC

1 40478U 95015BW  26257.59677577  .00002362  00000-0  11778-2 0  9997
2 40478  98.9985 210.2975 0064714 307.1007  52.4263 14.16813352589805

Traccia DMSP 5D-2 F13 DEB in tempo reale con AllMySat

Download on the App Store